星链-5819 (STARLINK-5819 )

导读 | 豆包AI

STARLINK-5819是美国太空探索技术公司(SpaceX)星链(Starlink)星座的成员卫星,于2023年3月3日发射升空。星链项目旨在构建全球卫星互联网星座,该卫星属于低轨通信卫星,入轨后承担对地网络通信传输任务,是星链大规模组网阶段补充发射的卫星之一,助力完善全球覆盖的卫星通信网络。

基本信息
目录编号:
55780
目录名称:
STARLINK-5819
国际标识:
2023-028AR
轨道中心:
EARTH
卫星名称:
星链-5819
卫星全名:
星链-5819 (STARLINK-5819 )
卫星状态:
在轨 (已飞行1108 天)
发射日期:
2023-03-03 UTC
国别 :
美国 (US)
星等 :
--
轨道信息
数据来源 国际轨道数据 AOE轨道数据
星历时间 2026-03-15T09:44:42+0800
17小时前
查看轨道信息
2026-03-09T05:00:00+0800
6天前
查看轨道信息
半长轴 6950.198km 6950.186km
偏心率 0.000279 0.0002563
轨道倾角 70.001° 70.003°
近地点辐角 267.601° 277.081°
升交点赤经 210.712° 226.338°
平近点角 92.483° 142.142°
近地点 570.121km 570.267km
远地点 574.001km 573.831km
周期 96.107分钟 96.107分钟
每日圈数 14.983284 14.983324
详细信息
固有亮度:
5
最大亮度:
2.5
卫星平台:
Starlink v1.5
覆盖范围:
全球
运营商:
太空探索技术公司
运营商所在国:
美国
制造商(研发单位):
太空探索技术公司
制造商所在国:
美国
使用方式:
暂无
卫星简介
星链(Starlink)计划是由太空探索技术公司(SpaceX)提出的一个巨型低轨卫星互联网星座项目,计划在2019年至2024年间在太空搭建由约1.2万颗卫星组成的“星链”网络,其中1584颗将部署在地球上空550千米处的近地轨道,并从2020年开始工作。该卫星仍在工作。
2D轨道图
3D轨道图
轨道高度分析图
轨道倾角分析图
轨道综合分析图
查看轨道综合分析图